Flag for Germany Weather past 2 weeks in Leinfelden-Echterdingen, Baden-Württemberg, Germany

46 °F

Passing clouds.

Feels Like: 44 °F
Forecast: 36 / 46 °F
Wind: 5 mph from Southwest

Location: Stuttgart-Echterdingen

Current Time: Dec 2, 2015 at 6:25:05 AM

Latest Report: Dec 2, 2015 at 5:20 AM

Visibility: N/A

Pressure: 30.39 "Hg

Humidity: 87%

Dew point: 43 °F

Location of Leinfelden-EchterdingenLocation

Historic Weather in Leinfelden-Echterdingen — Graph


Leinfelden-Echterdingen temperature yesterday

Maximum temperature yesterday: 50 °F (at 12:50 AM)
Minimum temperature yesterday: 46 °F (at 7:20 AM)
Average temperature yesterday: 48 °F

Past Weeks' High & Low Weather Summary

High61 °F (Nov 17, 10:50 PM)100% (Nov 20, 7:50 AM)30.42 "Hg (Nov 20, 7:50 AM)
Low23 °F (Nov 24, 2:20 AM)48% (Nov 18, 10:50 AM)29.36 "Hg (Nov 21, 2:50 PM)
Average42 °F84%29.98 "Hg
* Reported Nov 17 4:20 AM — Dec 2 4:20 AM, Leinfelden-Echterdingen, Weather by CustomWeather, © 2015

Note: Actual official high and low records may vary slightly from our data, if they occured in-between our weather recording intervals... More about our weather records


Leinfelden-Echterdingen weather history for previous 24 hours

Time TempWeatherWind HumidityBarometerVisibility
4:20 AM
Wed, Dec 2
46 °FPassing clouds.5 mph87%30.39 "HgN/A
3:20 AM48 °FPassing clouds.7 mph82%30.39 "HgN/A
2:50 AM48 °FPassing clouds.7 mph82%30.39 "HgN/A
2:20 AM48 °FPassing clouds.7 mph82%30.42 "HgN/A
1:50 AM46 °FPassing clouds.6 mph87%30.42 "HgN/A
1:20 AM48 °FPassing clouds.7 mph82%30.42 "HgN/A
12:20 AM46 °FPassing clouds.7 mph87%30.42 "HgN/A
11:50 PM
Tue, Dec 1
46 °FPassing clouds.8 mph87%30.42 "HgN/A
10:50 PM46 °FPassing clouds.8 mph93%30.42 "HgN/A
10:20 PM46 °FPassing clouds.7 mph93%30.42 "HgN/A
9:50 PM48 °FPassing clouds.7 mph87%30.42 "HgN/A
9:20 PM48 °FPassing clouds.8 mph87%30.39 "HgN/A
8:50 PM48 °FPassing clouds.8 mph87%30.39 "HgN/A
8:20 PM48 °FLight rain. Passing clouds.6 mph94%30.39 "HgN/A
7:50 PM48 °FLight rain. Passing clouds.7 mph94%30.39 "HgN/A
7:20 PM48 °FLight rain. Passing clouds.6 mph94%30.39 "HgN/A
6:50 PM48 °FLight rain. Passing clouds.7 mph94%30.39 "HgN/A
6:20 PM48 °FLight rain. Partly cloudy.7 mph87%30.39 "HgN/A
5:50 PM48 °FLight rain. Partly cloudy.6 mph87%30.36 "HgN/A
5:20 PM48 °FLight rain. Partly cloudy.8 mph87%30.36 "HgN/A
4:50 PM50 °FPassing clouds.10 mph88%30.36 "HgN/A
4:20 PM50 °FDrizzle. Broken clouds.6 mph88%30.36 "HgN/A
3:50 PM48 °FDrizzle. Broken clouds.8 mph94%30.36 "HgN/A
3:20 PM48 °FDrizzle. Broken clouds.10 mph94%30.36 "Hg5 mi
2:50 PM48 °FDrizzle. Broken clouds.12 mph94%30.33 "Hg4 mi
2:20 PM48 °FDrizzle. Broken clouds.12 mph94%30.33 "Hg4 mi
1:50 PM48 °FLight rain. Broken clouds.13 mph94%30.33 "HgN/A
1:20 PM48 °FLight rain. Broken clouds.14 mph94%30.33 "HgN/A
12:50 PM48 °FDrizzle. Fog.14 mph94%30.33 "Hg3 mi
12:20 PM48 °FDrizzle. Fog.14 mph94%30.30 "Hg3 mi
11:50 AM48 °FLight rain. Broken clouds.13 mph94%30.30 "HgN/A
11:20 AM48 °FLight rain. Low clouds.12 mph94%30.30 "Hg4 mi
10:50 AM48 °FLight rain. More clouds than sun.13 mph94%30.30 "Hg4 mi
10:20 AM48 °FLight rain. Partly sunny.13 mph94%30.30 "HgN/A
9:50 AM48 °FLight rain. Partly sunny.13 mph87%30.30 "HgN/A
8:50 AM46 °FLight rain. More clouds than sun.13 mph93%30.27 "HgN/A
8:20 AM46 °FRain. More clouds than sun.10 mph93%30.27 "HgN/A
7:50 AM48 °FRain. Mostly cloudy.12 mph87%30.27 "HgN/A
7:20 AM46 °FRain. Overcast.13 mph93%30.24 "HgN/A
6:50 AM48 °FLight rain. Mostly cloudy.12 mph87%30.24 "HgN/A
6:20 AM48 °FLight rain. Passing clouds.13 mph87%30.24 "HgN/A
Weather by CustomWeather, © 2015

See weather overviewHow to use our weather pages